GW1596 Weather Reports


Display with metric or nautical units.
time (UTC)temp
F
wind
direction
speed
MPH
gust
MPH
rain 1hr
in
rain 24hr
in
rain mn
in
humidity
%
barometer
mb
20260508082735 35 107 0.0 0.0 0.00 0.00 0.00 98 1017.6
20260508082150 34 107 0.0 0.0 0.00 0.00 0.00 98 1017.6
20260508081537 34 107 0.0 0.0 0.00 0.00 0.00 98 1017.6
20260508080328 34 107 0.0 0.0 0.00 0.00 0.00 98 1017.2
20260508075731 34 107 0.0 0.0 0.00 0.00 0.00 98 1017.6
20260508075120 34 107 0.0 0.0 0.00 0.00 0.00 98 1017.6
20260508074529 34 107 0.0 0.0 0.00 0.00 0.00 98 1017.6
20260508073327 35 107 0.0 0.0 0.00 0.00 0.00 98 1017.6
20260508072733 35 107 0.0 0.0 0.00 0.00 0.00 98 1017.6
20260508072115 35 107 0.0 0.0 0.00 0.00 0.00 98 1017.6
20260508071537 36 107 0.0 0.0 0.00 0.00 0.00 98 1017.6
20260508070951 36 107 0.0 1.0 0.00 0.00 0.00 98 1017.6
20260508070338 35 107 0.0 0.0 0.00 0.00 0.00 98 1017.6
20260508065738 34 107 0.0 0.0 0.00 0.00 0.00 98 1017.6
20260508065133 34 107 0.0 0.0 0.00 0.00 0.00 98 1017.9
20260508064520 35 107 0.0 0.0 0.00 0.00 0.00 98 1017.6
20260508063925 35 107 0.0 0.0 0.00 0.00 0.00 98 1017.9
20260508063318 35 107 0.0 0.0 0.00 0.00 0.00 98 1017.9
20260508062742 35 107 0.0 0.0 0.00 0.00 0.00 98 1017.9
20260508062146 35 107 0.0 0.0 0.00 0.00 0.00 97 1017.9
20260508061530 36 107 0.0 0.0 0.00 0.00 0.00 97 1017.6
20260508060909 36 107 0.0 0.0 0.00 0.00 0.00 97 1017.6
20260508060341 36 107 0.0 0.0 0.00 0.00 0.00 97 1017.6
20260508055751 36 107 0.0 0.0 0.00 0.00 0.00 97 1017.9
20260508055141 35 107 0.0 0.0 0.00 0.00 0.00 97 1017.6
20260508054544 35 107 0.0 0.0 0.00 0.00 0.00 97 1017.6
20260508052738 36 107 0.0 0.0 0.00 0.00 0.00 97 1017.9
20260508052132 36 107 0.0 0.0 0.00 0.00 0.00 97 1017.9
20260508051526 36 107 0.0 0.0 0.00 0.00 0.00 97 1017.9
20260508050945 36 107 0.0 0.0 0.00 0.00 0.00 96 1017.9
20260508050309 36 107 0.0 0.0 0.00 0.00 0.00 96 1017.9
20260508045724 37 107 0.0 0.0 0.00 0.00 0.00 96 1017.9
20260508045128 37 107 0.0 0.0 0.00 0.00 0.00 96 1017.9
20260508044542 37 107 0.0 0.0 0.00 0.00 0.00 96 1017.9
20260508043936 38 107 0.0 0.0 0.00 0.00 0.00 96 1017.9
20260508043347 38 107 0.0 0.0 0.00 0.00 0.00 95 1017.6
20260508042723 38 107 0.0 0.0 0.00 0.00 0.00 95 1017.6
20260508042141 38 107 0.0 0.0 0.00 0.00 0.00 95 1017.9
20260508041532 38 107 0.0 0.0 0.00 0.00 0.00 95 1017.6
20260508040318 38 107 0.0 0.0 0.00 0.00 0.00 94 1017.6
20260508035120 39 107 0.0 0.0 0.00 0.00 0.00 93 1017.6
20260508034526 39 107 0.0 0.0 0.00 0.00 0.00 92 1017.6
20260508033916 40 107 0.0 1.0 0.00 0.00 0.00 93 1017.6
20260508033321 40 107 0.0 0.0 0.00 0.00 0.00 92 1017.6
20260508032734 40 107 1.0 2.0 0.00 0.00 0.00 92 1017.6
20260508032147 40 107 0.0 0.0 0.00 0.00 0.00 92 1017.6
20260508031526 40 107 0.0 0.0 0.00 0.00 0.00 91 1017.6
20260508030931 40 107 0.0 0.0 0.00 0.00 0.00 91 1017.6
20260508030311 41 107 0.0 0.0 0.00 0.00 0.00 91 1017.6
20260508025719 41 107 0.0 0.0 0.00 0.00 0.00 90 1017.6
20260508025114 41 107 0.0 0.0 0.00 0.00 0.00 89 1017.6
20260508024525 41 107 0.0 0.0 0.00 0.00 0.00 88 1017.6
20260508023946 42 107 0.0 0.0 0.00 0.00 0.00 87 1017.2
20260508023341 42 107 0.0 0.0 0.00 0.00 0.00 86 1017.2
20260508022723 42 107 0.0 0.0 0.00 0.00 0.00 85 1017.2
20260508021515 43 107 0.0 0.0 0.00 0.00 0.00 84 1017.2
20260508020945 43 107 0.0 0.0 0.00 0.00 0.00 84 1016.9
20260508020349 44 107 0.0 0.0 0.00 0.00 0.00 80 1016.9
20260508015738 44 107 0.0 0.0 0.00 0.00 0.00 80 1016.9
20260508015145 45 107 0.0 0.0 0.00 0.00 0.00 79 1016.5
20260508014517 45 107 0.0 0.0 0.00 0.00 0.00 77 1016.5
20260508012725 47 106 0.0 0.0 0.00 0.00 0.00 72 1016.5
20260508011528 49 106 0.0 0.0 0.00 0.00 0.00 64 1016.2
20260508010935 50 106 0.0 0.0 0.00 0.00 0.00 63 1016.2
20260508010349 50 100 0.0 0.0 0.00 0.00 0.00 62 1016.2
20260508005736 52 112 1.0 1.0 0.00 0.00 0.00 61 1015.9
20260508003908 54 292 1.0 2.0 0.00 0.00 0.00 44 1016.2
20260508003340 55 26 3.0 4.0 0.00 0.00 0.00 46 1015.9
20260508002734 56 202 1.0 2.0 0.00 0.00 0.00 42 1015.9
20260508002111 56 332 3.0 3.0 0.00 0.00 0.00 38 1015.5
20260508001532 57 0 3.0 3.0 0.00 0.00 0.00 36 1015.5
20260508000949 57 343 1.0 7.0 0.00 0.00 0.00 36 1015.5
20260508000335 57 335 3.0 3.0 0.00 0.00 0.00 35 1015.2
20260507235747 58 330 3.0 6.0 0.00 0.00 0.00 35 1015.5
20260507235119 58 119 1.0 4.0 0.00 0.00 0.00 34 1015.5
20260507234551 58 246 0.0 4.0 0.00 0.00 0.00 35 1015.2
20260507233938 59 314 1.0 3.0 0.00 0.00 0.00 35 1015.2
20260507233347 59 313 2.0 7.0 0.00 0.00 0.00 33 1015.2
20260507231535 61 245 5.0 7.0 0.00 0.00 0.00 33 1014.9
20260507225744 62 277 2.0 7.0 0.00 0.00 0.00 33 1014.9
20260507225120 62 309 5.0 8.0 0.00 0.00 0.00 32 1014.5
20260507224527 62 247 5.0 6.0 0.00 0.00 0.00 32 1014.5
20260507223918 63 241 4.0 9.0 0.00 0.00 0.00 31 1014.5
20260507223338 62 9 5.0 8.0 0.00 0.00 0.00 32 1014.5
20260507222719 63 315 6.0 9.0 0.00 0.00 0.00 30 1014.5
20260507221516 63 241 4.0 10.0 0.00 0.00 0.00 28 1014.9
20260507220312 63 283 3.0 6.0 0.00 0.00 0.00 33 1014.5
20260507215738 64 15 5.0 15.0 0.00 0.00 0.00 31 1014.2
20260507215144 63 346 4.0 8.0 0.00 0.00 0.00 32 1014.2
20260507213944 63 252 10.0 11.0 0.00 0.00 0.00 31 1013.8
20260507212737 65 260 8.0 10.0 0.00 0.00 0.00 32 1013.8
20260507211532 63 345 5.0 6.0 0.00 0.00 0.00 34 1013.8
20260507210928 62 301 2.0 6.0 0.00 0.00 0.00 37 1013.8
20260507210344 65 1 7.0 10.0 0.00 0.00 0.00 31 1013.8
20260507204547 65 310 3.0 9.0 0.00 0.00 0.00 37 1013.8
20260507202737 64 247 7.0 10.0 0.00 0.00 0.00 34 1013.8
20260507202152 65 356 11.0 20.0 0.00 0.00 0.00 34 1013.8
20260507201538 64 28 1.0 4.0 0.00 0.00 0.00 33 1013.8
20260507200938 65 254 10.0 12.0 0.00 0.00 0.00 35 1013.8
20260507195752 65 260 4.0 12.0 0.00 0.00 0.00 38 1013.8
20260507195151 64 340 5.0 10.0 0.00 0.00 0.00 37 1014.2
20260507194514 65 264 6.0 9.0 0.00 0.00 0.00 33 1013.8
20260507193951 64 305 3.0 6.0 0.00 0.00 0.00 34 1014.5
20260507192732 64 246 4.0 8.0 0.00 0.00 0.00 42 1014.2
20260507192146 64 14 7.0 12.0 0.00 0.00 0.00 33 1014.2
20260507191535 62 253 2.0 9.0 0.00 0.00 0.00 36 1014.5
20260507190936 63 260 3.0 9.0 0.00 0.00 0.00 36 1014.5
20260507185724 64 221 3.0 7.0 0.00 0.00 0.00 33 1014.5
20260507185150 64 256 8.0 9.0 0.00 0.00 0.00 33 1014.5
20260507184549 64 149 2.0 7.0 0.00 0.00 0.00 34 1014.9
20260507183952 65 170 2.0 7.0 0.00 0.00 0.00 40 1014.5
20260507183308 64 223 4.0 8.0 0.00 0.00 0.00 44 1014.9
20260507182714 63 285 6.0 9.0 0.00 0.00 0.00 41 1014.5
20260507182150 62 259 4.0 4.0 0.00 0.00 0.00 43 1014.5
20260507181510 62 48 3.0 6.0 0.00 0.00 0.00 38 1014.5
20260507180928 60 348 6.0 11.0 0.00 0.00 0.00 40 1014.9
20260507180324 63 249 7.0 8.0 0.00 0.00 0.00 38 1014.5
20260507174520 62 258 8.0 10.0 0.00 0.00 0.00 41 1014.9
20260507173945 62 248 11.0 14.0 0.00 0.00 0.00 41 1014.9
20260507172732 63 189 5.0 6.0 0.00 0.00 0.00 45 1014.9
20260507172129 60 257 4.0 10.0 0.00 0.00 0.00 50 1014.9
20260507170911 62 222 3.0 6.0 0.00 0.00 0.00 43 1015.2
20260507170321 61 264 4.0 15.0 0.00 0.00 0.00 42 1015.2
20260507165750 59 269 4.0 10.0 0.00 0.00 0.00 48 1015.5
20260507165135 59 333 3.0 9.0 0.00 0.00 0.00 51 1015.5
20260507163923 62 335 6.0 14.0 0.00 0.00 0.00 44 1015.5
20260507162722 62 189 4.0 7.0 0.00 0.00 0.00 42 1015.5
20260507162152 61 140 1.0 3.0 0.00 0.00 0.00 41 1015.5
20260507161555 60 246 6.0 7.0 0.00 0.00 0.00 43 1015.5
20260507160923 58 211 2.0 2.0 0.00 0.00 0.00 47 1015.9
20260507160346 58 10 5.0 7.0 0.00 0.00 0.00 46 1015.9
20260507155731 59 241 2.0 6.0 0.00 0.00 0.00 55 1015.9
20260507155123 60 221 4.0 6.0 0.00 0.00 0.00 47 1015.5
20260507154519 59 233 4.0 6.0 0.00 0.00 0.00 46 1015.9
20260507153911 60 245 6.0 10.0 0.00 0.00 0.00 47 1015.9
20260507153316 60 235 6.0 9.0 0.00 0.00 0.00 50 1015.9
20260507152750 60 256 6.0 10.0 0.00 0.00 0.00 47 1015.9
20260507151534 59 2 6.0 9.0 0.00 0.00 0.00 47 1015.9
20260507150347 59 266 3.0 9.0 0.00 0.00 0.00 51 1015.9
20260507145715 58 24 2.0 7.0 0.00 0.00 0.00 45 1016.2
20260507145111 57 0 4.0 9.0 0.00 0.00 0.00 51 1016.5
20260507144515 58 242 2.0 7.0 0.00 0.00 0.00 48 1016.2
20260507143939 58 5 6.0 11.0 0.00 0.00 0.00 48 1016.2
20260507143320 57 235 2.0 3.0 0.00 0.00 0.00 55 1016.2
20260507142123 57 190 2.0 3.0 0.00 0.00 0.00 58 1016.2
20260507141518 57 261 2.0 7.0 0.00 0.00 0.00 52 1016.5
20260507140926 56 9 3.0 7.0 0.00 0.00 0.00 55 1016.9
20260507140342 57 1 8.0 10.0 0.00 0.00 0.00 54 1016.5
20260507135144 58 82 3.0 3.0 0.00 0.00 0.00 52 1016.9
20260507134519 58 119 0.0 1.0 0.00 0.00 0.00 59 1016.9
20260507133319 56 174 2.0 1.0 0.00 0.00 0.00 56 1016.9
20260507132743 56 158 1.0 1.0 0.00 0.00 0.00 59 1017.2
20260507132122 55 149 0.0 0.0 0.00 0.00 0.00 65 1017.2
20260507130911 54 135 1.0 1.0 0.00 0.00 0.00 71 1016.9
20260507130312 53 135 1.0 1.0 0.00 0.00 0.00 74 1016.9
20260507124550 49 141 0.0 0.0 0.00 0.00 0.00 92 1017.2
20260507123943 48 142 0.0 1.0 0.00 0.00 0.00 94 1017.2
20260507123343 48 131 0.0 0.0 0.00 0.00 0.00 96 1017.2
20260507122748 47 131 0.0 1.0 0.00 0.00 0.00 97 1017.2
20260507122127 46 115 0.0 1.0 0.00 0.00 0.00 98 1017.6
20260507120340 44 173 0.0 0.0 0.00 0.00 0.00 98 1017.2
20260507115712 44 173 0.0 0.0 0.00 0.00 0.00 98 1017.2
20260507115147 44 173 0.0 1.0 0.00 0.00 0.00 98 1017.2
20260507114527 43 173 0.0 1.0 0.00 0.00 0.00 98 1017.2
20260507113916 43 173 0.0 0.0 0.00 0.00 0.00 98 1017.2
20260507113326 43 173 0.0 1.0 0.00 0.00 0.00 98 1016.9
20260507112752 43 172 0.0 0.0 0.00 0.00 0.00 98 1016.9
20260507111513 43 172 0.0 1.0 0.00 0.00 0.00 98 1016.9
20260507110940 43 172 0.0 0.0 0.00 0.00 0.00 98 1016.5
20260507110320 43 172 0.0 0.0 0.00 0.00 0.00 98 1016.5
20260507105718 43 173 0.0 0.0 0.00 0.00 0.00 98 1016.5
20260507105143 43 105 0.0 0.0 0.00 0.00 0.00 98 1016.5
20260507104546 43 105 0.0 0.0 0.00 0.00 0.00 98 1016.5
20260507103320 44 105 0.0 0.0 0.00 0.00 0.00 98 1016.2
20260507102729 44 105 0.0 0.0 0.00 0.00 0.00 98 1016.5
20260507101525 44 105 0.0 1.0 0.00 0.00 0.00 98 1016.2
20260507100912 44 105 0.0 0.0 0.00 0.00 0.00 98 1016.2
20260507100332 44 105 0.0 0.0 0.00 0.00 0.00 98 1016.2
20260507095740 43 105 0.0 0.0 0.00 0.00 0.00 98 1016.2
20260507095110 43 105 0.0 0.0 0.00 0.00 0.00 98 1016.2
20260507093930 43 105 0.0 0.0 0.00 0.00 0.00 97 1016.2
20260507093344 43 105 0.0 0.0 0.00 0.00 0.00 97 1016.2
20260507092744 43 105 0.0 0.0 0.00 0.00 0.00 97 1016.2
20260507092130 44 105 0.0 0.0 0.00 0.00 0.00 97 1016.2
20260507091510 44 105 0.0 0.0 0.00 0.00 0.00 97 1016.2
20260507090940 44 105 0.0 0.0 0.00 0.00 0.00 97 1016.2
20260507090318 44 105 0.0 0.0 0.00 0.00 0.00 97 1016.2
20260507085715 45 105 0.0 0.0 0.00 0.00 0.00 97 1015.9
20260507085109 45 105 0.0 0.0 0.00 0.00 0.00 97 1015.9
20260507084541 45 105 0.0 0.0 0.00 0.00 0.00 97 1015.9
20260507083925 45 105 0.0 0.0 0.00 0.00 0.00 97 1016.2
20260507083327 45 105 0.0 0.0 0.00 0.00 0.00 96 1015.9